Tracking 29892 objects as of 21-Nov-2024
HD Live streaming from Space Station
objects crossing your sky now

STARLINK-2322

Track STARLINK-2322 now!
10-day predictions
STARLINK-2322 is classified as:


NORAD ID: 47791
Int'l Code: 2021-018E
Perigee: 553.4 km
Apogee: 555.2 km
Inclination: 53.1 °
Period: 95.6 minutes
Semi major axis: 6925 km
RCS: Unknown
Launch date: March 11, 2021
Source: United States (US)
Launch site: AIR FORCE EASTERN TEST RANGE (AFETR)
Your satellite tracking list
Your tracking list is empty




NASA's NSSDC Master Catalog

Two Line Element Set (TLE):
1 47791U 21018E   24325.11033541  .00005715  00000-0  40214-3 0  9996
2 47791  53.0535 222.0866 0001306  97.4497 262.6641 15.06408805205075
Source of the keplerian elements: AFSPC